Flight Track Log - Related Links

Times and Time Zones

All times are in EDT time to prevent confusion due to time zone crossing. See the CTL13 flight status page for this flight to view local times or setup timezone preferences in your user account.

Time Position Orientation Groundspeed Altitude Reporting Facility
EDT Latitude Longitude Course Direction KTS MPH feet Rate Location/Type
Tue 08:39:49 PM 39.9167 -86.2833 North 166 191 2,200  Level Indianapolis TRACON
Tue 08:40:43 PM 39.9667 -86.3000 346° North 175 201 2,800 611 Climbing Indianapolis TRACON
Tue 08:41:37 PM 39.9833 -86.3333 303° West 161 185 3,300 579 Climbing Indianapolis TRACON
Tue 08:42:37 PM 40.0167 -86.3667 323° Northwest 157 181 3,900 420 Climbing Indianapolis TRACON
Tue 08:44:00 PM 40.0527 -86.4312 306° West  Level FlightAware Approximate
Tue 08:48:17 PM 40.2000 -86.6008 305° West 160 184 6,100  Level Chicago Center
Tue 08:49:18 PM 40.2383 -86.6386 323° Northwest 162 186 6,000 -58 Descending Chicago Center
Tue 08:50:00 PM 40.2486 -86.6664 296° West 324 373 6,000  Level Chicago Center
Tue 08:50:19 PM 40.2661 -86.6786 332° Northwest 155 178 6,000  Level Chicago Center
Tue 08:51:00 PM 40.3217 -86.6311 320° Northwest  Level Estimated
Tue 08:51:01 PM 40.2892 -86.7056 318° Northwest 154 177 6,000  Level Chicago Center
Tue 08:51:19 PM 40.2981 -86.7214 306° West 155 178 6,000  Level Chicago Center
Tue 08:52:00 PM 40.3469 -86.6788 305° West  Level FlightAware Approximate
Tue 08:52:03 PM 40.3225 -86.7428 326° Northwest 156 180 6,000  Level Chicago Center
Tue 08:52:20 PM 40.3278 -86.7586 294° West 156 180 6,000  Level Chicago Center
Tue 08:53:00 PM 40.3720 -86.7265 305° West  Level FlightAware Approximate
Tue 08:53:20 PM 40.3575 -86.8017 312° West 156 180 6,000  Level Chicago Center
Tue 08:54:21 PM 40.3853 -86.8417 312° West 154 177 6,000  Level Chicago Center
Tue 08:55:09 PM 40.4069 -86.8683 317° Northwest 153 176 6,000  Level Chicago Center
Tue 08:56:11 PM 40.4375 -86.9097 314° West 155 178 6,000  Level Chicago Center
Tue 08:57:23 PM 40.4764 -86.9678 311° West 155 178 6,000  Level Chicago Center
Tue 08:58:23 PM 40.5042 -87.0053 314° West 153 176 6,000  Level Chicago Center
Tue 08:59:24 PM 40.5381 -87.0458 318° Northwest 154 177 6,000  Level Chicago Center
Tue 09:00:18 PM 40.5642 -87.0725 322° Northwest 151 174 6,000  Level Chicago Center
Tue 09:01:20 PM 40.6081 -87.0942 339° North 171 197 6,000 -48 Level Chicago Center
Tue 09:02:22 PM 40.6500 -87.1147 340° North 165 190 5,900 -48 Descending Chicago Center
Tue 09:03:24 PM 40.7011 -87.1428 337° Northwest 165 190 5,900 48 Level Chicago Center
Tue 09:04:26 PM 40.7433 -87.1639 339° North 163 188 6,000 49 Climbing Chicago Center
Tue 09:05:27 PM 40.7869 -87.1889 337° Northwest 167 192 6,000  Level Chicago Center
Tue 09:06:29 PM 40.8317 -87.2086 342° North 168 193 6,000  Level Chicago Center
Tue 09:07:31 PM 40.8753 -87.2269 342° North 167 192 6,000  Level Chicago Center
Tue 09:08:33 PM 40.9186 -87.2492 339° North 167 192 6,000 -49 Level Chicago Center
Tue 09:09:34 PM 40.9706 -87.2794 336° Northwest 170 196 5,900 -49 Descending Chicago Center
Tue 09:10:36 PM 41.0131 -87.3031 337° Northwest 168 193 5,900  Level Chicago Center
Tue 09:11:38 PM 41.0550 -87.3275 336° Northwest 166 191 5,900  Level Chicago Center
Tue 09:12:40 PM 41.0981 -87.3483 340° North 166 191 5,900 -98 Level Chicago Center
Tue 09:13:41 PM 41.1431 -87.3708 339° North 171 197 5,700 -390 Descending Chicago Center
Tue 09:14:43 PM 41.1911 -87.3969 338° Northwest 179 206 5,100 -629 Descending Chicago Center
Tue 09:15:45 PM 41.2497 -87.4269 339° North 186 214 4,400 -484 Descending Chicago Center
Tue 09:16:47 PM 41.2983 -87.4531 338° Northwest 188 216 4,100 -194 Descending Chicago Center
Tue 09:17:49 PM 41.3447 -87.4792 337° Northwest 186 214 4,000 -49 Descending Chicago Center
Tue 09:18:50 PM 41.3886 -87.5078 334° Northwest 182 209 4,000  Level Chicago Center
Tue 09:19:52 PM 41.4286 -87.5436 326° Northwest 178 205 4,000  Level Chicago Center
Tue 09:20:54 PM 41.4764 -87.5878 325° Northwest 177 204 4,000  Level Chicago Center
Tue 09:21:56 PM 41.5158 -87.6239 326° Northwest 174 200 4,000  Level Chicago Center
Tue 09:22:58 PM 41.5572 -87.6603 327° Northwest 177 204 4,000 49 Level Chicago Center
Tue 09:23:59 PM 41.5653 -87.7136 281° West 166 191 4,100  Climbing Chicago Center
Tue 09:25:01 PM 41.5625 -87.7692 266° West 157 181 4,000 -48 Descending Chicago Center
Tue 09:26:03 PM 41.5603 -87.8383 268° West 156 180 4,000 -145 Level Chicago Center
Tue 09:27:05 PM 41.5642 -87.8953 275° West 169 194 3,700 -585 Descending Chicago Center
Tue 09:28:06 PM 41.5894 -87.9561 299° West 183 211 2,800 -585 Descending Chicago Center
Tue 09:29:08 PM 41.6353 -87.9433 12° North 190 219 2,500 -145 Descending Chicago Center
Tue 09:30:10 PM 41.6661 -87.9028 44° Northeast 170 196 2,500 -61 Level Chicago Center
Tue 09:30:46 PM 41.6833 -87.8667 57° Northeast 151 174 2,400 -63 Descending Chicago TRACON
Tue 09:31:46 PM 41.7167 -87.8333 37° Northeast 133 153 2,400 -350 Level Chicago TRACON
Tue 09:32:46 PM 41.7333 -87.8167 37° Northeast 97 112 1,700 -545 Descending Chicago TRACON
Tue 09:33:47 PM 41.7667 -87.7833 37° Northeast 103 119 1,300 -393 Descending Chicago TRACON
Tue 09:36:00 PM 41.7833 -87.7500 42° Northeast  Level FlightAware Approximate

Login

Don't have an account? Register now (free) for customized features, flight alerts, and more!